Flag for Greece Weather past 2 weeks in Nikaia, Greece

63 °F

Passing clouds.

Feels Like: 63 °F
Forecast: 60 / 76 °F
Wind: No wind

Location: Elefsis Airport

Current Time: Oct 14, 2015 at 3:02:38 AM

Latest Report: Oct 14, 2015 at 2:20 AM

Visibility: N/A

Pressure: 30.09 "Hg

Humidity: 77%

Dew point: 55 °F

Location of NikaiaLocation

Historic Weather in Nikaia — Graph


Nikaia temperature yesterday

Maximum temperature yesterday: 79 °F (at 12:50 PM)
Minimum temperature yesterday: 63 °F (at 11:50 PM)
Average temperature yesterday: 71 °F

Past Weeks' High & Low Weather Summary

High84 °F (Oct 6, 3:50 PM)94% (Oct 11, 5:50 AM)30.30 "Hg (Oct 11, 5:50 AM)
Low59 °F (Oct 4, 4:20 AM)29% (Oct 6, 3:50 PM)29.68 "Hg (Oct 11, 12:50 PM)
Average70 °F64%30.01 "Hg
* Reported Sep 29 1:20 AM — Oct 14 1:50 AM, Nikaia, Weather by CustomWeather, © 2015

Note: Actual official high and low records may vary slightly from our data, if they occured in-between our weather recording intervals... More about our weather records


Nikaia weather history for previous 24 hours

Time TempWeatherWind HumidityBarometerVisibility
1:50 AM
Wed, Oct 14
64 °FPassing clouds.3 mph73%30.09 "HgN/A
1:20 AM63 °FPassing clouds.2 mph77%30.09 "HgN/A
12:50 AM63 °FPassing clouds.2 mph77%30.09 "HgN/A
12:20 AM63 °FPassing clouds.3 mph77%30.09 "HgN/A
11:50 PM
Tue, Oct 13
63 °FPassing clouds.3 mph77%30.09 "HgN/A
11:20 PM66 °FPassing clouds.3 mph68%30.07 "HgN/A
10:50 PM64 °FPassing clouds.3 mph78%30.07 "HgN/A
10:20 PM64 °FPassing clouds.3 mph78%30.07 "HgN/A
9:50 PM68 °FPassing clouds.1 mph73%30.07 "HgN/A
9:20 PM68 °FPassing clouds.6 mph73%30.07 "HgN/A
8:50 PM70 °FPassing clouds.7 mph69%30.04 "HgN/A
8:20 PM70 °FPassing clouds.8 mph69%30.04 "HgN/A
7:50 PM72 °FScattered clouds.9 mph61%30.04 "HgN/A
7:20 PM72 °FScattered clouds.8 mph61%30.01 "HgN/A
6:50 PM73 °FScattered clouds.8 mph53%30.01 "HgN/A
6:20 PM75 °FScattered clouds.7 mph50%30.01 "HgN/A
5:50 PM77 °FScattered clouds.8 mph44%30.01 "HgN/A
5:20 PM79 °FScattered clouds.5 mph42%30.01 "HgN/A
4:50 PM79 °FScattered clouds.8 mph45%29.98 "HgN/A
4:20 PM79 °FScattered clouds.7 mph45%29.98 "HgN/A
3:50 PM79 °FScattered clouds.8 mph45%29.98 "HgN/A
3:20 PM79 °FScattered clouds.9 mph42%29.98 "HgN/A
2:50 PM79 °FScattered clouds.7 mph42%30.01 "HgN/A
2:20 PM79 °FScattered clouds.7 mph42%30.01 "HgN/A
1:50 PM77 °FPassing clouds.8 mph44%30.01 "HgN/A
1:20 PM79 °FPassing clouds.5 mph34%30.01 "HgN/A
12:50 PM79 °FPassing clouds.6 mph37%30.01 "HgN/A
12:20 PM77 °FPassing clouds.9 mph39%30.01 "HgN/A
11:50 AM77 °FPassing clouds.9 mph39%30.01 "HgN/A
11:20 AM75 °FPassing clouds.9 mph41%30.01 "HgN/A
10:50 AM73 °FPassing clouds.9 mph44%30.01 "HgN/A
10:20 AM73 °FPassing clouds.10 mph44%30.01 "HgN/A
9:50 AM70 °FScattered clouds.12 mph50%30.01 "HgN/A
9:20 AM72 °FPassing clouds.10 mph47%30.01 "HgN/A
8:50 AM70 °FPassing clouds.8 mph50%29.98 "HgN/A
8:20 AM68 °FPassing clouds.6 mph53%29.98 "HgN/A
7:50 AM66 °FPassing clouds.5 mph56%29.98 "HgN/A
7:20 AM66 °FPassing clouds.6 mph56%29.98 "HgN/A
6:50 AM68 °FPassing clouds.7 mph53%29.98 "HgN/A
6:20 AM66 °FPassing clouds.7 mph56%29.95 "HgN/A
5:50 AM68 °FClear.7 mph53%29.95 "Hg10 mi
5:20 AM68 °FClear.7 mph53%29.95 "Hg10 mi
4:50 AM68 °FClear.9 mph53%29.95 "Hg10 mi
4:20 AM68 °FPassing clouds.6 mph56%29.95 "HgN/A
3:50 AM68 °FPassing clouds.6 mph56%29.95 "HgN/A
3:20 AM66 °FPassing clouds.6 mph64%29.95 "HgN/A
Weather by CustomWeather, © 2015

See weather overviewHow to use our weather pages